Regional Weather Roundup
Issued by NWS

Home | Current Version | Previous Version | Text Only | Print | Product List | Glossary Off
Versions: 1 2 3 4 5 6 7 8 9 10 11 12 13 14 15 16 17 18 19 20 21 22 23 24 25 26 27 28 29 30 31 32 33 34 35 36 37 38 39 40 41 42 43 44 45 46 47 48 49 50

000
ASUS45 KABQ 290810
RWRNM
NEW MEXICO REGIONAL WEATHER ROUNDUP
NATIONAL WEATHER SERVICE ALBUQUERQUE NM
200 AM MDT SAT AUG 29 2015

NOTE: "FAIR" MEANS FEW OR NO CLOUDS BELOW 12,000 FEET AGL WITH NO
       SIGNIFICANT WEATHER OR OBSTRUCTIONS TO VISION.

      THIS PRODUCT IS RELEASED AS TWO VERSIONS.  ONE VERSION NEAR
      THE TOP OF THE HOUR CONTAINING PRELIMINARY DATA FROM ALBUQUERQUE
      AND OTHER STATIONS.  A FINAL VERSION WITH ADDITIONAL DATA IS
      ISSUED ABOUT 10 MINUTES AFTER THE HOUR.

NMZ501-503-504-510>518-290900-
NORTHWEST PLATEAU/NORTHCENTRAL MOUNTAINS

CITY           SKY/WX    TMP DP  RH WIND       PRES   REMARKS
FARMINGTON     CLEAR     63  44  50 E10       30.21R
LOS ALAMOS     RAIN      60  51  70 SW18G24   30.38F
SANTA FE       CLOUDY    63  50  62 S8        30.34R
TAOS           CLOUDY    61  39  44 E5        30.39F
ANGEL FIRE     FAIR      39  38  97 CALM      30.52S FOG

$$
NMZ402-403-502-505>509-290900-
WESTCENTRAL MOUNTAINS/SOUTHWEST MOUNTAINS

CITY           SKY/WX    TMP DP  RH WIND       PRES   REMARKS
GALLUP         PTCLDY    57  43  59 CALM      30.30S
GRANTS         PTCLDY    61  51  70 S9        30.34S
SILVER CITY      N/A     70  55  60 E8        30.25R

$$
NMZ407-409-411-412-290900-
SOUTHERN DESERTS

CITY           SKY/WX    TMP DP  RH WIND       PRES   REMARKS
LORDSBURG      FAIR      72  52  49 SE12      30.12R
DEMING         PTCLDY    73  57  57 NE20G25   30.15R
LAS CRUCES     MOCLDY    70  57  64 N6        30.17R
HOLLOMAN AFB   PTCLDY    73  54  52 NW9       30.15F
ALAMOGORDO     PTCLDY    68  55  64 W3        30.17S
T OR C         CLOUDY    71  56  58 NW8       30.21R

$$
NMZ519>523-290900-
CENTRAL VALLEYS/CENTRAL HIGHLANDS

CITY           SKY/WX    TMP DP  RH WIND       PRES   REMARKS
ALBUQUERQUE    MOCLDY    71  49  45 E6        30.27F
DOUBLE EAGLE   MOCLDY    67  51  55 E10       30.31S
MORIARTY ARPT  FAIR      56  51  83 CALM      30.36S
CLINES CORNERS PTCLDY    56  52  86 E5        30.38S
BELEN          PTSUNNY   70  55  58 W3        30.25F
SOCORRO        FAIR      71  55  57 NE3       30.24F

$$
NMZ524>526-539-540-290900-
SOUTHCENTRAL MOUNTAINS

CITY           SKY/WX    TMP DP  RH WIND       PRES   REMARKS
RUIDOSO        MOCLDY    57  55  94 MISG      30.41R

$$
NMZ527>531-290900-
NORTHEAST HIGHLANDS/NORTHEAST PLAINS

CITY           SKY/WX    TMP DP  RH WIND       PRES   REMARKS
LAS VEGAS      CLEAR     54  48  80 N5        30.39F
RATON          PTCLDY    55  49  80 NE7       30.33F
CLAYTON        PTCLDY    66  55  67 W8        30.22F

$$
NMZ532>537-290900-
EASTCENTRAL PLAINS

CITY           SKY/WX    TMP DP  RH WIND       PRES   REMARKS
TUCUMCARI      CLOUDY    68  60  75 NW6       30.16F
CANNON AFB     CLOUDY    67  62  81 W5        30.18F
CLOVIS AIRPORT CLOUDY    66  61  82 S5        30.19S

$$
NMZ028-029-538-290900-
SOUTHEAST PLAINS

CITY           SKY/WX    TMP DP  RH WIND       PRES   REMARKS
ROSWELL        LGT RAIN  67  61  81 N9        30.17F
ARTESIA        LGT RAIN  68  68 100 N5        30.18F
CARLSBAD       CLOUDY    74  61  63 N16       30.16R
HOBBS          LGT RAIN  66  66 100 CALM      30.19R


$$



USA.gov is the U.S. government's official web portal to all federal, state and local government web resources and services.